EW9039 Weather Reports


Display with metric or nautical units.
time (UTC)temp
F
wind
direction
speed
MPH
gust
MPH
rain 1hr
in
rain 24hr
in
rain mn
in
humidity
%
barometer
mb
20210805075729 54 169 0.0 0.0 0.00 0.00 0.00 93 1013.3
20210805075231 54 169 0.0 0.0 0.00 0.00 0.00 93 1013.5
20210805074728 54 169 0.0 0.0 0.00 0.00 0.00 93 1013.5
20210805074226 55 169 0.0 0.0 0.00 0.00 0.00 93 1013.5
20210805073726 55 169 0.0 0.0 0.00 0.00 0.00 93 1013.5
20210805073225 55 169 0.0 0.0 0.00 0.00 0.00 93 1013.5
20210805072727 55 169 0.0 0.0 0.00 0.00 0.00 92 1013.4
20210805072226 55 169 0.0 0.0 0.00 0.00 0.00 92 1013.4
20210805071726 55 169 0.0 0.0 0.00 0.00 0.00 92 1013.4
20210805071225 55 169 0.0 0.0 0.00 0.00 0.00 92 1013.3
20210805070727 55 169 0.0 0.0 0.00 0.00 0.00 92 1013.3
20210805070223 55 169 0.0 0.0 0.00 0.00 0.00 92 1013.3
20210805065725 55 169 0.0 0.0 0.00 0.00 0.00 92 1013.3
20210805065221 55 169 0.0 0.0 0.00 0.00 0.00 92 1013.3
20210805064722 55 169 0.0 0.0 0.00 0.00 0.00 92 1013.3
20210805064224 55 169 0.0 0.0 0.00 0.00 0.00 91 1013.4
20210805063723 55 169 0.0 0.0 0.00 0.00 0.00 91 1013.4
20210805063222 55 169 0.0 0.0 0.00 0.00 0.00 91 1013.4
20210805062720 55 169 0.0 0.0 0.00 0.00 0.00 91 1013.4
20210805062222 55 169 0.0 0.0 0.00 0.00 0.00 91 1013.4
20210805061715 55 169 0.0 0.0 0.00 0.00 0.00 91 1013.4
20210805061216 55 169 0.0 0.0 0.00 0.00 0.00 91 1013.3
20210805060715 56 169 0.0 0.0 0.00 0.00 0.00 90 1013.3
20210805060214 56 169 0.0 0.0 0.00 0.00 0.00 90 1013.4
20210805055712 56 169 0.0 0.0 0.00 0.00 0.00 90 1013.5
20210805055214 56 169 0.0 0.0 0.00 0.00 0.00 90 1013.4
20210805054709 56 169 0.0 0.0 0.00 0.00 0.00 90 1013.4
20210805054209 56 169 0.0 0.0 0.00 0.00 0.00 90 1013.4
20210805053709 56 169 0.0 0.0 0.00 0.00 0.00 89 1013.4
20210805053208 56 169 0.0 0.0 0.00 0.00 0.00 89 1013.4
20210805052709 57 169 0.0 0.0 0.00 0.00 0.00 88 1013.5
20210805052207 57 169 0.0 0.0 0.00 0.00 0.00 89 1013.4
20210805051708 57 169 0.0 0.0 0.00 0.00 0.00 89 1013.4
20210805051208 57 169 0.0 0.0 0.00 0.00 0.00 88 1013.4
20210805050709 57 169 0.0 0.0 0.00 0.00 0.00 88 1013.5
20210805050205 57 169 0.0 0.0 0.00 0.00 0.00 88 1013.5
20210805045704 57 169 0.0 3.0 0.00 0.00 0.00 88 1013.4
20210805045205 57 169 0.0 3.0 0.00 0.00 0.00 88 1013.4
20210805044703 58 169 0.0 4.0 0.00 0.00 0.00 87 1013.3
20210805044205 58 169 0.0 4.0 0.00 0.00 0.00 87 1013.3
20210805043705 58 169 0.0 4.0 0.00 0.00 0.00 86 1013.1
20210805043205 59 169 0.0 3.0 0.00 0.00 0.00 86 1013.0
20210805042703 59 172 0.0 3.0 0.00 0.00 0.00 86 1012.9
20210805042205 59 172 0.0 3.0 0.00 0.00 0.00 85 1012.9
20210805041701 59 172 0.0 2.0 0.00 0.00 0.00 85 1012.8
20210805041200 60 172 0.0 2.0 0.00 0.00 0.00 84 1012.8
20210805040700 60 171 0.0 0.0 0.00 0.00 0.00 83 1012.7
20210805040159 60 172 0.0 0.0 0.00 0.00 0.00 83 1012.7
20210805035701 61 172 0.0 0.0 0.00 0.00 0.00 82 1012.6
20210805035200 61 172 0.0 0.0 0.00 0.00 0.00 81 1012.6
20210805034701 62 171 0.0 0.0 0.00 0.00 0.00 80 1012.6
20210805034159 62 175 0.0 0.0 0.00 0.00 0.00 79 1012.5
20210805033700 63 194 0.0 0.0 0.00 0.00 0.00 78 1012.4
20210805033156 64 194 0.0 0.0 0.00 0.00 0.00 76 1012.4
20210805032653 65 194 0.0 0.0 0.00 0.00 0.00 74 1012.3
20210805032153 65 205 0.0 0.0 0.00 0.00 0.00 74 1012.1
20210805031654 66 205 0.0 0.0 0.00 0.00 0.00 73 1012.1
20210805031153 66 205 0.0 0.0 0.00 0.00 0.00 73 1012.1
20210805030653 66 205 0.0 0.0 0.00 0.00 0.00 73 1012.0
20210805030153 66 205 0.0 0.0 0.00 0.00 0.00 73 1012.1
20210805025651 66 205 0.0 0.0 0.00 0.00 0.00 73 1012.1
20210805025151 66 205 0.0 0.0 0.00 0.00 0.00 73 1012.0
20210805024652 66 205 0.0 0.0 0.00 0.00 0.00 73 1012.0
20210805024148 66 205 0.0 0.0 0.00 0.00 0.00 72 1012.0
20210805023647 67 227 0.0 1.0 0.00 0.00 0.00 72 1012.0
20210805023145 66 203 0.0 1.0 0.00 0.00 0.00 72 1012.0
20210805022641 67 190 0.0 4.0 0.00 0.00 0.00 72 1012.0
20210805022141 67 186 0.0 4.0 0.00 0.00 0.00 72 1012.0
20210805021640 67 187 0.0 4.0 0.00 0.00 0.00 72 1012.0
20210805021139 67 177 0.0 5.0 0.00 0.00 0.00 71 1011.9
20210805020642 67 178 0.0 8.0 0.00 0.00 0.00 71 1011.9
20210805020142 67 184 1.0 8.0 0.00 0.00 0.00 70 1011.9
20210805015636 68 196 1.0 8.0 0.00 0.00 0.00 69 1011.8
20210805015131 68 168 1.0 8.0 0.00 0.00 0.00 68 1011.8
20210805014625 69 147 2.0 10.0 0.00 0.00 0.00 67 1011.8
20210805014119 69 169 2.0 10.0 0.00 0.00 0.00 66 1011.7
20210805013612 70 155 1.0 7.0 0.00 0.00 0.00 65 1011.7
20210805013107 70 186 0.0 7.0 0.00 0.00 0.00 64 1011.5
20210805012600 71 174 0.0 7.0 0.00 0.00 0.00 64 1011.6
20210805012054 71 163 1.0 7.0 0.00 0.00 0.00 64 1011.6
20210805011548 71 186 1.0 8.0 0.00 0.00 0.00 63 1011.6
20210805011043 71 164 1.0 8.0 0.00 0.00 0.00 63 1011.7
20210805010536 71 203 1.0 9.0 0.00 0.00 0.00 62 1011.7
20210805010031 71 201 1.0 9.0 0.00 0.00 0.00 61 1011.7
20210805005525 72 169 1.0 10.0 0.00 0.00 0.00 61 1011.7
20210805005018 72 178 2.0 10.0 0.00 0.00 0.00 60 1011.7
20210805004513 72 188 1.0 8.0 0.00 0.00 0.00 60 1011.7
20210805004006 73 179 1.0 9.0 0.00 0.00 0.00 59 1011.7
20210805003500 73 163 1.0 9.0 0.00 0.00 0.00 58 1011.8
20210805002954 74 148 2.0 10.0 0.00 0.00 0.00 58 1011.8
20210805002449 74 164 2.0 10.0 0.00 0.00 0.00 56 1011.8
20210805001943 75 195 1.0 8.0 0.00 0.00 0.00 56 1011.8
20210805001437 75 174 1.0 9.0 0.00 0.00 0.00 57 1011.8
20210805000932 74 184 1.0 9.0 0.00 0.00 0.00 56 1011.8
20210805000425 75 182 1.0 8.0 0.00 0.00 0.00 56 1011.8
20210804235919 74 169 1.0 7.0 0.00 0.00 0.00 56 1011.8
20210804235413 74 172 2.0 9.0 0.00 0.00 0.00 57 1011.8
20210804234907 75 181 2.0 9.0 0.00 0.00 0.00 56 1011.9
20210804234401 75 198 1.0 9.0 0.00 0.00 0.00 56 1011.9
20210804233854 75 178 1.0 9.0 0.00 0.00 0.00 55 1011.9
20210804233348 75 195 2.0 9.0 0.00 0.00 0.00 56 1012.0
20210804232843 75 175 2.0 8.0 0.00 0.00 0.00 56 1012.0
20210804232339 75 174 1.0 10.0 0.00 0.00 0.00 56 1012.1
20210804231830 75 182 1.0 10.0 0.00 0.00 0.00 56 1012.3
20210804231324 75 223 2.0 11.0 0.00 0.00 0.00 57 1012.1
20210804230819 75 175 3.0 11.0 0.00 0.00 0.00 57 1012.1
20210804230313 75 155 2.0 10.0 0.00 0.00 0.00 57 1012.0
20210804225806 75 185 1.0 8.0 0.00 0.00 0.00 56 1012.1
20210804225302 75 164 1.0 8.0 0.00 0.00 0.00 57 1012.0
20210804224755 75 190 1.0 9.0 0.00 0.00 0.00 56 1012.0
20210804224250 75 175 1.0 9.0 0.00 0.00 0.00 56 1012.0
20210804223744 75 202 2.0 10.0 0.00 0.00 0.00 57 1012.1
20210804223236 74 161 3.0 11.0 0.00 0.00 0.00 57 1012.3
20210804222731 74 188 4.0 11.0 0.00 0.00 0.00 58 1012.3
20210804222224 74 210 2.0 10.0 0.00 0.00 0.00 57 1012.1
20210804221718 75 165 2.0 10.0 0.00 0.00 0.00 57 1012.3
20210804221214 75 178 3.0 10.0 0.00 0.00 0.00 57 1012.4
20210804220713 75 175 2.0 10.0 0.00 0.00 0.00 57 1012.5
20210804220212 75 180 2.0 10.0 0.00 0.00 0.00 57 1012.5
20210804215712 75 195 3.0 12.0 0.00 0.00 0.00 56 1012.5
20210804215212 75 169 2.0 12.0 0.00 0.00 0.00 57 1012.5
20210804214711 75 175 2.0 9.0 0.00 0.00 0.00 57 1012.6
20210804214208 75 175 3.0 11.0 0.00 0.00 0.00 57 1012.6
20210804213707 75 200 3.0 11.0 0.00 0.00 0.00 57 1012.6
20210804213208 75 174 3.0 12.0 0.00 0.00 0.00 58 1012.7
20210804212707 75 179 2.0 12.0 0.00 0.00 0.00 57 1012.7
20210804212207 74 201 3.0 12.0 0.00 0.00 0.00 59 1012.7
20210804211706 74 168 4.0 12.0 0.00 0.00 0.00 58 1012.7
20210804211205 74 158 5.0 12.0 0.00 0.00 0.00 58 1012.8
20210804210705 75 169 4.0 10.0 0.00 0.00 0.00 57 1012.8
20210804210203 75 165 3.0 9.0 0.00 0.00 0.00 57 1012.8
20210804205702 75 184 2.0 8.0 0.00 0.00 0.00 57 1012.9
20210804205203 74 175 1.0 9.0 0.00 0.00 0.00 58 1012.9
20210804204704 74 198 2.0 9.0 0.00 0.00 0.00 60 1012.9
20210804204158 73 200 3.0 10.0 0.00 0.00 0.00 60 1013.0
20210804203652 73 154 2.0 10.0 0.00 0.00 0.00 59 1013.1
20210804203146 74 184 2.0 11.0 0.00 0.00 0.00 60 1013.2
20210804202640 72 168 4.0 11.0 0.00 0.00 0.00 61 1013.2
20210804202134 72 163 4.0 11.0 0.00 0.00 0.00 61 1013.2
20210804201628 72 204 3.0 12.0 0.00 0.00 0.00 62 1013.2
20210804201122 71 173 3.0 12.0 0.00 0.00 0.00 62 1013.2
20210804200616 71 187 4.0 12.0 0.00 0.00 0.00 62 1013.3
20210804200116 71 157 4.0 12.0 0.00 0.00 0.00 62 1013.3
20210804195616 72 144 3.0 8.0 0.00 0.00 0.00 60 1013.3
20210804195114 73 164 2.0 8.0 0.00 0.00 0.00 61 1013.4
20210804194611 73 153 1.0 8.0 0.00 0.00 0.00 61 1013.3
20210804194110 72 150 1.0 5.0 0.00 0.00 0.00 61 1013.3
20210804193611 72 159 0.0 6.0 0.00 0.00 0.00 61 1013.4
20210804193112 71 174 0.0 6.0 0.00 0.00 0.00 63 1013.4
20210804192611 70 155 1.0 7.0 0.00 0.00 0.00 64 1013.4
20210804192111 70 178 1.0 7.0 0.00 0.00 0.00 65 1013.5
20210804191608 69 170 1.0 8.0 0.00 0.00 0.00 65 1013.6
20210804191109 70 194 2.0 9.0 0.00 0.00 0.00 66 1013.5
20210804190610 69 184 2.0 9.0 0.00 0.00 0.00 67 1013.5
20210804190107 69 190 2.0 7.0 0.00 0.00 0.00 67 1013.5
20210804185606 68 174 1.0 7.0 0.00 0.00 0.00 69 1013.5
20210804185106 68 161 2.0 9.0 0.00 0.00 0.00 69 1013.5
20210804184608 68 165 2.0 9.0 0.00 0.00 0.00 69 1013.5
20210804184109 68 171 1.0 8.0 0.00 0.00 0.00 68 1013.5
20210804183608 68 172 0.0 6.0 0.00 0.00 0.00 69 1013.5
20210804183108 67 178 1.0 8.0 0.00 0.00 0.00 70 1013.6
20210804182606 67 167 1.0 8.0 0.00 0.00 0.00 71 1013.6
20210804182105 67 194 1.0 6.0 0.00 0.00 0.00 72 1013.6
20210804181606 66 181 0.0 6.0 0.00 0.00 0.00 73 1013.6
20210804181105 66 167 0.0 6.0 0.00 0.00 0.00 73 1013.6
20210804180605 65 175 0.0 5.0 0.00 0.00 0.00 75 1013.6
20210804180105 65 178 0.0 3.0 0.00 0.00 0.00 76 1013.5
20210804175604 64 178 0.0 1.0 0.00 0.00 0.00 78 1013.5
20210804175106 62 178 0.0 6.0 0.00 0.00 0.00 81 1013.6
20210804174601 62 177 1.0 6.0 0.00 0.00 0.00 82 1013.6
20210804174100 61 206 1.0 6.0 0.00 0.00 0.00 85 1013.7
20210804173601 60 173 0.0 6.0 0.00 0.00 0.00 85 1013.7
20210804173101 60 178 0.0 1.0 0.00 0.00 0.00 86 1013.6
20210804172602 59 186 0.0 3.0 0.00 0.00 0.00 88 1013.6
20210804172105 58 202 0.0 3.0 0.00 0.00 0.00 88 1013.6
20210804171604 58 198 0.0 4.0 0.00 0.00 0.00 89 1013.6
20210804171103 58 180 0.0 4.0 0.00 0.00 0.00 89 1013.7
20210804170604 58 218 0.0 3.0 0.00 0.00 0.00 90 1013.7
20210804170101 57 238 0.0 3.0 0.00 0.00 0.00 91 1013.8
20210804165559 57 197 0.0 9.0 0.00 0.00 0.00 92 1013.8
20210804165059 57 193 1.0 9.0 0.00 0.00 0.00 93 1013.8
20210804164556 56 189 2.0 9.0 0.00 0.00 0.00 93 1013.8
20210804164058 56 165 3.0 9.0 0.00 0.00 0.00 93 1013.8
20210804163556 56 180 1.0 4.0 0.00 0.00 0.00 94 1013.8
20210804163056 56 189 1.0 4.0 0.00 0.00 0.00 94 1013.7
20210804162556 55 194 1.0 4.0 0.00 0.00 0.00 95 1013.6
20210804162058 55 178 0.0 4.0 0.00 0.00 0.00 95 1013.6
20210804161556 55 189 0.0 2.0 0.00 0.00 0.00 95 1013.5
20210804161057 55 184 1.0 3.0 0.00 0.00 0.00 95 1013.6
20210804160554 54 186 1.0 3.0 0.00 0.00 0.00 95 1013.5
20210804160056 54 192 0.0 3.0 0.00 0.00 0.00 95 1013.4
20210804155554 54 196 0.0 3.0 0.00 0.00 0.00 95 1013.4
20210804155056 54 195 0.0 3.0 0.00 0.00 0.00 95 1013.4
20210804154554 54 208 0.0 0.0 0.00 0.00 0.00 95 1013.3
20210804154054 54 208 0.0 0.0 0.00 0.00 0.00 95 1013.2
20210804153550 54 208 0.0 0.0 0.00 0.00 0.00 95 1013.2
20210804153048 54 209 0.0 0.0 0.00 0.00 0.00 95 1013.1
20210804152547 54 209 0.0 0.0 0.00 0.00 0.00 95 1013.1
20210804152045 54 208 0.0 0.0 0.00 0.00 0.00 95 1013.1
20210804151545 54 146 0.0 0.0 0.00 0.00 0.00 95 1013.0
20210804151041 54 146 0.0 0.0 0.00 0.00 0.00 95 1012.9
20210804150544 54 146 0.0 0.0 0.00 0.00 0.00 95 1013.0
20210804150038 53 144 0.0 0.0 0.00 0.00 0.00 95 1013.1
20210804145531 53 144 0.0 0.0 0.00 0.00 0.00 95 1013.0
20210804145026 53 144 0.0 0.0 0.00 0.00 0.00 95 1013.0
20210804144520 53 144 0.0 0.0 0.00 0.00 0.00 95 1013.1
20210804144013 53 150 0.0 0.0 0.00 0.00 0.00 95 1013.1
20210804143508 53 150 0.0 0.0 0.00 0.00 0.00 95 1013.2
20210804143001 53 150 0.0 0.0 0.00 0.00 0.00 95 1013.2
20210804142455 53 150 0.0 0.0 0.00 0.00 0.00 95 1013.3
20210804141950 53 150 0.0 0.0 0.00 0.00 0.00 95 1013.2
20210804141446 53 150 0.0 0.0 0.00 0.00 0.00 95 1013.1
20210804140937 53 150 0.0 0.0 0.00 0.00 0.00 95 1013.0
20210804140429 53 150 0.0 0.0 0.00 0.00 0.00 95 1012.9
20210804135924 53 150 0.0 0.0 0.00 0.00 0.00 95 1012.8
20210804135418 53 150 0.0 0.0 0.00 0.00 0.00 95 1012.9
20210804134911 53 150 0.0 0.0 0.00 0.00 0.00 95 1012.9
20210804134406 53 150 0.0 0.0 0.00 0.00 0.00 95 1012.8
20210804133859 53 150 0.0 0.0 0.00 0.00 0.00 95 1012.8
20210804133354 53 149 0.0 0.0 0.00 0.00 0.00 95 1012.8
20210804132848 53 149 0.0 0.0 0.00 0.00 0.00 95 1012.7
20210804132342 53 149 0.0 0.0 0.00 0.00 0.00 95 1012.7
20210804131835 53 149 0.0 0.0 0.00 0.00 0.00 95 1012.8
20210804131330 53 149 0.0 0.0 0.00 0.00 0.00 95 1012.8
20210804130823 53 148 0.0 0.0 0.00 0.00 0.00 95 1012.7
20210804130317 53 148 0.0 0.0 0.00 0.00 0.00 95 1012.8
20210804125813 53 148 0.0 0.0 0.00 0.00 0.00 95 1012.8
20210804125306 53 148 0.0 0.0 0.00 0.00 0.00 95 1012.8
20210804124800 53 148 0.0 0.0 0.00 0.00 0.00 95 1012.7
20210804124254 53 148 0.0 0.0 0.00 0.00 0.00 95 1012.7
20210804123748 53 148 0.0 0.0 0.00 0.00 0.00 95 1012.7
20210804123241 53 148 0.0 0.0 0.00 0.00 0.00 95 1012.6
20210804122736 53 148 0.0 0.0 0.00 0.00 0.00 95 1012.6
20210804122230 53 148 0.0 0.0 0.00 0.00 0.00 95 1012.5
20210804121724 53 150 0.0 0.0 0.00 0.00 0.00 95 1012.5
20210804121218 53 150 0.0 0.0 0.00 0.00 0.00 95 1012.5
20210804120711 53 154 0.0 0.0 0.00 0.00 0.00 94 1012.5
20210804120208 53 155 0.0 0.0 0.00 0.00 0.00 95 1012.4
20210804115700 53 155 0.0 0.0 0.00 0.00 0.00 95 1012.4
20210804115153 53 155 0.0 0.0 0.00 0.00 0.00 95 1012.4
20210804114648 53 159 0.0 0.0 0.00 0.00 0.00 94 1012.4
20210804114142 53 159 0.0 0.0 0.00 0.00 0.00 94 1012.4
20210804113635 53 159 0.0 0.0 0.00 0.00 0.00 94 1012.5
20210804113130 53 158 0.0 0.0 0.00 0.00 0.00 94 1012.5
20210804112624 53 158 0.0 0.0 0.00 0.00 0.00 94 1012.4
20210804112118 53 158 0.0 0.0 0.00 0.00 0.00 95 1012.5
20210804111612 53 158 0.0 0.0 0.00 0.00 0.00 94 1012.5
20210804111106 53 158 0.0 0.0 0.00 0.00 0.00 94 1012.4
20210804110603 53 158 0.0 0.0 0.00 0.00 0.00 94 1012.4
20210804110055 53 158 0.0 0.0 0.00 0.00 0.00 94 1012.3
20210804105548 53 158 0.0 0.0 0.00 0.00 0.00 94 1012.1
20210804105041 53 158 0.0 0.0 0.00 0.00 0.00 94 1012.1
20210804104538 53 158 0.0 0.0 0.00 0.00 0.00 94 1012.3
20210804104032 53 158 0.0 0.0 0.00 0.00 0.00 94 1012.3
20210804103524 53 158 0.0 0.0 0.00 0.00 0.00 94 1012.1
20210804103018 53 158 0.0 0.0 0.00 0.00 0.00 94 1012.1
20210804102511 53 167 0.0 0.0 0.00 0.00 0.00 94 1012.3
20210804102006 53 167 0.0 0.0 0.00 0.00 0.00 94 1012.4
20210804101500 53 167 0.0 0.0 0.00 0.00 0.00 94 1012.4
20210804100954 53 167 0.0 0.0 0.00 0.00 0.00 94 1012.4
20210804100448 54 167 0.0 0.0 0.00 0.00 0.00 94 1012.4
20210804095941 54 167 0.0 0.0 0.00 0.00 0.00 94 1012.4
20210804095436 54 167 0.0 0.0 0.00 0.00 0.00 94 1012.4
20210804094930 54 167 0.0 0.0 0.00 0.00 0.00 94 1012.3
20210804094423 54 167 0.0 0.0 0.00 0.00 0.00 94 1012.3
20210804093918 54 166 0.0 0.0 0.00 0.00 0.00 94 1012.3
20210804093411 54 166 0.0 0.0 0.00 0.00 0.00 94 1012.3
20210804092906 54 166 0.0 0.0 0.00 0.00 0.00 94 1012.3
20210804092400 54 166 0.0 0.0 0.00 0.00 0.00 94 1012.3
20210804091854 54 166 0.0 2.0 0.00 0.00 0.00 94 1012.5
20210804091348 54 166 0.0 2.0 0.00 0.00 0.00 94 1012.5
20210804090841 54 166 0.0 3.0 0.00 0.00 0.00 94 1012.6
20210804090336 54 166 0.0 3.0 0.00 0.00 0.00 94 1012.5
20210804085831 54 166 0.0 3.0 0.00 0.00 0.00 94 1012.6
20210804085324 54 166 0.0 4.0 0.00 0.00 0.00 94 1012.6
20210804084819 54 166 0.0 4.0 0.00 0.00 0.00 94 1012.6
20210804084313 54 166 0.0 0.0 0.00 0.00 0.00 94 1012.6
20210804083805 54 166 0.0 0.0 0.00 0.00 0.00 93 1012.5
20210804083259 54 166 0.0 0.0 0.00 0.00 0.00 93 1012.4
20210804082754 54 166 0.0 0.0 0.00 0.00 0.00 93 1012.4
20210804082247 54 166 0.0 0.0 0.00 0.00 0.00 93 1012.5
20210804081745 54 166 0.0 0.0 0.00 0.00 0.00 93 1012.4
20210804081236 55 166 0.0 0.0 0.00 0.00 0.00 93 1012.5
20210804080730 55 166 0.0 0.0 0.00 0.00 0.00 93 1012.4
20210804080224 55 166 0.0 0.0 0.00 0.00 0.00 93 1012.5